Rock Springs, WY

11:14 AM MDT on July 25, 2017 (GMT -0600)
Rock Springs-Sweetwater

Weather History for KRKS - August, 2014

Change the Weather History Date:

Friday, August 22, 2014

  Actual Average Record
Temperature  
Mean Temperature 61 °F 66 °F  
Max Temperature 77 °F 80 °F 93 °F (2009)
Min Temperature 45 °F 51 °F 37 °F (1954)
Degree Days  
Heating Degree Days 4 2  
Month to date heating degree days 22 17  
Since 1 June heating degree days 183 208  
Since 1 July heating degree days 36 41  
Cooling Degree Days 0 2  
Month to date cooling degree days 70 83  
Year to date cooling degree days 299 263  
Since 1 June cooling degree days 292 262  
Growing Degree Days 10 (Base 50)    
Moisture  
Dew Point 45 °F    
Average Humidity 60    
Maximum Humidity 93    
Minimum Humidity 27    
Precipitation  
Precipitation 0.04 in 0.02 in 0.37 in (1968)
Month to date precipitation 0.34 0.43  
Year to date precipitation 2.30 5.59  
Sea Level Pressure  
Sea Level Pressure 29.99 in    
Wind  
Wind Speed 8 mph (WNW)    
Max Wind Speed 25 mph    
Max Gust Speed 30 mph    
Visibility 10 miles    
Events Rain , Thunderstorm    
T = Trace of Precipitation, MM = Missing Value Source: NWS Daily Summary

Daily Weather History Graph

Daily Weather History Graph

Search for Another Location

Airport or City:

Trip Planner

Search our weather history database for the weather conditions in past years. The results will help you decide how hot, cold, wet, or windy it might be!

Date:

Astronomy

Aug. 22, 2014 Rise Set
Actual Time 6:32 AM MDT 8:05 PM MDT
Civil Twilight 6:02 AM MDT 8:34 PM MDT
Nautical Twilight 5:27 AM MDT 9:09 PM MDT
Astronomical Twilight 4:49 AM MDT 9:47 PM MDT
Moon 3:56 AM MDT (8/22) 6:16 PM MDT (8/22)
Length of Visible Light 14h 31m
Length of Day
13h 33m
Waning Crescent, 7% of the Moon is Illuminated
Aug 22
Waning Crescent
Aug 25
New
Sep 2
First Quarter
Sep 8
Full
Sep 15
Last Quarter

Hourly Weather History & Observations

Time (MDT) Temp. Dew Point Humidity Pressure Visibility Wind Dir Wind Speed Gust Speed Precip Events Conditions
12:54 AM 54.0 °F 44.1 °F 69% 30.00 in 10.0 mi South 6.9 mph - N/A   Clear
1:54 AM 55.0 °F 42.1 °F 62% 29.98 in 10.0 mi South 4.6 mph - N/A   Clear
3:54 AM 54.0 °F 39.0 °F 57% 30.00 in 10.0 mi WSW 3.5 mph - N/A   Clear
4:54 AM 48.0 °F 42.1 °F 80% 30.05 in 10.0 mi NNW 10.4 mph - N/A   Clear
5:54 AM 48.9 °F 41.0 °F 74% 30.03 in 10.0 mi WSW 4.6 mph - N/A   Clear
6:54 AM 48.9 °F 41.0 °F 74% 30.03 in 10.0 mi Calm Calm - N/A   Clear
7:54 AM 51.1 °F 42.1 °F 71% 30.03 in 10.0 mi SE 3.5 mph - N/A   Clear
8:54 AM 55.9 °F 43.0 °F 62% 30.01 in 10.0 mi Calm Calm - N/A   Clear
9:54 AM 62.1 °F 44.1 °F 52% 29.99 in 10.0 mi NE 5.8 mph - N/A   Clear
10:54 AM 64.9 °F 43.0 °F 45% 29.95 in 10.0 mi SE 6.9 mph - N/A   Clear
11:54 AM 70.0 °F 44.1 °F 39% 29.91 in 10.0 mi Variable 6.9 mph - N/A   Clear
12:54 PM 72.0 °F 42.1 °F 34% 29.89 in 10.0 mi Variable 4.6 mph - N/A   Partly Cloudy
1:54 PM 73.9 °F 37.9 °F 27% 29.84 in 10.0 mi WSW 9.2 mph 19.6 mph N/A   Scattered Clouds
2:44 PM 68.0 °F 45.0 °F 43% 30.07 in 10.0 mi West 23.0 mph 31.1 mph 0.00 in Rain , Thunderstorm Light Thunderstorms and Rain
2:54 PM 69.1 °F 48.0 °F 47% 29.84 in 10.0 mi NW 12.7 mph - 0.00 in Rain , Thunderstorm Light Rain
3:23 PM 69.1 °F 41.0 °F 36% 30.05 in 10.0 mi WNW 8.1 mph - 0.00 in Thunderstorm Thunderstorm
3:38 PM 66.9 °F 46.9 °F 49% 30.05 in 10.0 mi North 5.8 mph - 0.00 in Rain , Thunderstorm Light Rain
3:52 PM 64.4 °F 48.2 °F 56% 30.06 in 10.0 mi Variable 3.5 mph - 0.00 in Rain , Thunderstorm Light Thunderstorms and Rain
3:54 PM 64.0 °F 48.9 °F 58% 29.86 in 10.0 mi North 3.5 mph - 0.00 in Rain , Thunderstorm Light Thunderstorms and Rain
4:07 PM 63.0 °F 48.9 °F 60% 30.07 in 10.0 mi West 15.0 mph - 0.00 in Thunderstorm Overcast
4:34 PM 63.0 °F 48.9 °F 60% 30.06 in 10.0 mi NW 11.5 mph - 0.00 in   Mostly Cloudy
4:54 PM 62.1 °F 50.0 °F 65% 29.89 in 10.0 mi NNW 13.8 mph - 0.00 in   Mostly Cloudy
5:54 PM 57.9 °F 48.9 °F 72% 29.94 in 10.0 mi WNW 11.5 mph - N/A   Overcast
6:54 PM 60.1 °F 48.9 °F 67% 29.89 in 10.0 mi North 10.4 mph - 0.00 in   Overcast
7:54 PM 57.0 °F 48.0 °F 72% 29.93 in 10.0 mi West 4.6 mph - N/A   Overcast
8:54 PM 53.1 °F 46.9 °F 80% 29.97 in 10.0 mi NW 13.8 mph - 0.00 in Rain Light Rain
9:24 PM 50.0 °F 46.0 °F 86% 30.15 in 10.0 mi NNW 13.8 mph 24.2 mph 0.00 in Rain Light Rain
9:33 PM 48.9 °F 45.0 °F 86% 30.14 in 10.0 mi NNW 17.3 mph 21.9 mph 0.00 in Rain Light Rain
9:54 PM 48.0 °F 45.0 °F 89% 30.00 in 10.0 mi WNW 15.0 mph - 0.01 in Rain Light Rain
10:54 PM 46.9 °F 45.0 °F 93% 30.00 in 8.0 mi West 12.7 mph - 0.01 in Rain Light Rain
11:54 PM 46.9 °F 43.0 °F 86% 29.97 in 10.0 mi West 13.8 mph - 0.00 in Rain Light Rain